Glens Falls, NY
on Saturday, December 9, 2017

Saturday
       
Previous Day Next Day
Daily Summary
 ActualAverageRecord
Temperature
Mean Temperature °F °C 28°F -2°C  
Max Temperature 32°F 0°C 36°F 2°C 56°F 13°C (1966)
Min Temperature 22°F -6°C 19°F -7°C -5°F -20°C (1989)
Degree Days
Heating Degree Days 38 37  
Month to date heating degree days 275 320  
Since 1 July heating degree days 1686 2018  
Cooling Degree Days 0 0  
Month to date cooling degree days 0 0  
Year to date cooling degree days 388 352  
Moisture
Dew Point 23°F -5°C   
Average Humidity 77    
Maximum Humidity 100    
Minimum Humidity 53    
Precipitation
Precipitation T in / T cm 0.12 in / 3.05 cm 1.01 in / 2.57 cm (1973)
Month to date precipitation 0.75 1.00  
Year to date precipitation 34.27 37.01  
Wind
Wind Speed 1 mph / 2 km/h   
Max Wind Speed 8 mph / 13 km/h   
Max Gust Speed 10 mph / 16 km/h   
Visibility 6 miles / 9 kilometers   
Events Snow   

Key: T is trace of precipitation, MM is missing value
Source: NWS Daily Summary
Time(EST)TemperatureDew PointHumidity Pressure Visibility Wind DirectionWind SpeedGust SpeedPrecipitationEvents Conditions
12:53 AM 25.0°F -3.9°C 19.9°F -6.7°C 81% 29.97 in / 1014.7 hPa 10.0 miles / 16.1 kilometers Calm Calm - N/A   Clear
1:53 AM 27.0°F -2.8°C 19.0°F -7.2°C 72% 29.97 in / 1014.8 hPa 10.0 miles / 16.1 kilometers South 4.6 mph / 7.4 km/h - N/A   Clear
2:53 AM 26.1°F -3.3°C 19.9°F -6.7°C 78% 29.99 in / 1015.3 hPa 10.0 miles / 16.1 kilometers Calm Calm - N/A   Clear
3:53 AM 25.0°F -3.9°C 21.0°F -6.1°C 85% 29.98 in / 1015.1 hPa 10.0 miles / 16.1 kilometers Calm Calm - N/A   Clear
4:53 AM 25.0°F -3.9°C 21.0°F -6.1°C 85% 29.98 in / 1015.1 hPa 10.0 miles / 16.1 kilometers Calm Calm - N/A   Clear
5:53 AM 25.0°F -3.9°C 21.0°F -6.1°C 85% 29.99 in / 1015.5 hPa 10.0 miles / 16.1 kilometers Calm Calm - N/A   Clear
6:53 AM 24.1°F -4.4°C 19.9°F -6.7°C 84% 29.99 in / 1015.5 hPa 10.0 miles / 16.1 kilometers Calm Calm - N/A   Clear
7:53 AM 24.1°F -4.4°C 21.0°F -6.1°C 88% 29.99 in / 1015.6 hPa 10.0 miles / 16.1 kilometers Calm Calm - N/A   Clear
8:53 AM 27.0°F -2.8°C 21.0°F -6.1°C 78% 30.00 in / 1015.8 hPa 10.0 miles / 16.1 kilometers Calm Calm - N/A   Partly Cloudy
9:53 AM 28.9°F -1.7°C 19.9°F -6.7°C 69% 29.99 in / 1015.3 hPa 10.0 miles / 16.1 kilometers Calm Calm - N/A   Mostly Cloudy
10:53 AM 30.0°F -1.1°C 19.9°F -6.7°C 66% 29.93 in / 1013.5 hPa 10.0 miles / 16.1 kilometers Calm Calm - N/A   Mostly Cloudy
11:53 AM 30.9°F -0.6°C 18.0°F -7.8°C 59% 29.92 in / 1013.0 hPa 10.0 miles / 16.1 kilometers ESE 3.5 mph / 5.6 km/h - N/A   Overcast
12:53 PM 30.9°F -0.6°C 18.0°F -7.8°C 59% 29.90 in / 1012.5 hPa 10.0 miles / 16.1 kilometers Calm Calm - N/A   Overcast
1:53 PM 30.9°F -0.6°C 15.1°F -9.4°C 52% 29.86 in / 1011.1 hPa 10.0 miles / 16.1 kilometers Calm Calm - N/A   Overcast
2:53 PM 30.9°F -0.6°C 16.0°F -8.9°C 54% 29.85 in / 1010.6 hPa 10.0 miles / 16.1 kilometers Calm Calm - N/A   Overcast
3:53 PM 30.9°F -0.6°C 16.0°F -8.9°C 54% 29.83 in / 1010.2 hPa 10.0 miles / 16.1 kilometers Calm Calm - N/A   Overcast
4:53 PM 28.9°F -1.7°C 21.0°F -6.1°C 72% 29.84 in / 1010.5 hPa 6.0 miles / 9.7 kilometers SE 8.1 mph / 13.0 km/h - 0.00 in / 0.0 cm Snow Light Snow
5:08 PM 28.0°F -2.2°C 24.1°F -4.4°C 85% 29.81 in / 1009.4 hPa 2.5 miles / 4.0 kilometers SE 3.5 mph / 5.6 km/h - 0.00 in / 0.0 cm Snow Light Snow
5:46 PM 28.0°F -2.2°C 25.0°F -3.9°C 88% 29.80 in / 1009.0 hPa 1.8 miles / 2.8 kilometers Calm Calm - 0.00 in / 0.0 cm Snow Light Snow
5:53 PM 27.0°F -2.8°C 25.0°F -3.9°C 92% 29.83 in / 1010.1 hPa 1.5 miles / 2.4 kilometers Calm Calm - 0.00 in / 0.0 cm Snow Light Snow
6:33 PM 27.0°F -2.8°C 26.1°F -3.3°C 96% 29.78 in / 1008.4 hPa 2.0 miles / 3.2 kilometers WNW 4.6 mph / 7.4 km/h - 0.00 in / 0.0 cm Snow Light Snow
6:49 PM 26.6°F -3.0°C 26.6°F -3.0°C 100% 29.78 in / 1008.4 hPa 2.0 miles / 3.2 kilometers WNW 4.6 mph / 7.4 km/h - 0.00 in / 0.0 cm Snow Light Snow
6:53 PM 27.0°F -2.8°C 26.1°F -3.3°C 96% 29.82 in / 1009.6 hPa 2.0 miles / 3.2 kilometers Calm Calm - 0.00 in / 0.0 cm Snow Light Snow
7:00 PM 27.0°F -2.8°C 26.1°F -3.3°C 96% 29.77 in / 1008.0 hPa 1.8 miles / 2.8 kilometers WNW 3.5 mph / 5.6 km/h - 0.00 in / 0.0 cm Snow Light Snow
7:15 PM 27.0°F -2.8°C 26.1°F -3.3°C 96% 29.77 in / 1008.0 hPa 1.5 miles / 2.4 kilometers WNW 3.5 mph / 5.6 km/h - 0.00 in / 0.0 cm Snow Light Snow
7:39 PM 27.0°F -2.8°C 25.0°F -3.9°C 92% 29.77 in / 1008.0 hPa 2.0 miles / 3.2 kilometers WNW 5.8 mph / 9.3 km/h - 0.00 in / 0.0 cm Snow Light Snow
7:53 PM 27.0°F -2.8°C 26.1°F -3.3°C 96% 29.80 in / 1008.9 hPa 3.0 miles / 4.8 kilometers WNW 5.8 mph / 9.3 km/h - 0.00 in / 0.0 cm Snow Light Snow
8:02 PM 27.0°F -2.8°C 26.1°F -3.3°C 96% 29.76 in / 1007.7 hPa 2.5 miles / 4.0 kilometers WNW 4.6 mph / 7.4 km/h - 0.00 in / 0.0 cm Snow Light Snow
8:16 PM 27.0°F -2.8°C 26.1°F -3.3°C 96% 29.76 in / 1007.7 hPa 1.8 miles / 2.8 kilometers WNW 3.5 mph / 5.6 km/h - 0.00 in / 0.0 cm Snow Light Snow
8:31 PM 27.0°F -2.8°C 26.1°F -3.3°C 96% 29.73 in / 1006.7 hPa 1.8 miles / 2.8 kilometers NNW 3.5 mph / 5.6 km/h - 0.00 in / 0.0 cm Snow Light Snow
8:53 PM 27.0°F -2.8°C 26.1°F -3.3°C 96% 29.77 in / 1008.0 hPa 1.5 miles / 2.4 kilometers NW 3.5 mph / 5.6 km/h - 0.00 in / 0.0 cm Snow Light Snow
9:06 PM 27.0°F -2.8°C 26.1°F -3.3°C 96% 29.73 in / 1006.7 hPa 2.5 miles / 4.0 kilometers Calm Calm - 0.00 in / 0.0 cm Snow Light Snow
9:22 PM 27.0°F -2.8°C 26.1°F -3.3°C 96% 29.73 in / 1006.7 hPa 3.0 miles / 4.8 kilometers Calm Calm - 0.00 in / 0.0 cm Snow Light Snow
9:40 PM 27.0°F -2.8°C 26.1°F -3.3°C 96% 29.72 in / 1006.3 hPa 2.5 miles / 4.0 kilometers Calm Calm - 0.00 in / 0.0 cm Snow Light Snow
9:51 PM 26.6°F -3.0°C 26.6°F -3.0°C 100% 29.73 in / 1006.7 hPa 3.0 miles / 4.8 kilometers Calm Calm - 0.00 in / 0.0 cm Snow Light Snow
9:53 PM 27.0°F -2.8°C 27.0°F -2.8°C 100% 29.76 in / 1007.7 hPa 3.0 miles / 4.8 kilometers Calm Calm - 0.00 in / 0.0 cm Snow Light Snow
10:48 PM 26.6°F -3.0°C 26.6°F -3.0°C 100% 29.72 in / 1006.3 hPa 2.5 miles / 4.0 kilometers Calm Calm - 0.00 in / 0.0 cm Snow Light Snow
10:53 PM 27.0°F -2.8°C 27.0°F -2.8°C 100% 29.75 in / 1007.3 hPa 2.5 miles / 4.0 kilometers Calm Calm - 0.00 in / 0.0 cm Snow Light Snow
11:53 PM 27.0°F -2.8°C 27.0°F -2.8°C 100% 29.73 in / 1006.8 hPa 2.5 miles / 4.0 kilometers Calm Calm - 0.00 in / 0.0 cm Snow Light Snow